Location: Knowlton
(51.2333°N, 1.2667°E)
Time: 10:49:12
(UTC+00:00)

Cosmos 1603 - Pass Details

Date: 18 April 2021
Orbit: 830 x 860 km, 71.0° (Epoch: 16 May)

Event Time Altitude Azimuth Distance (km) Brightness Sun altitude
Rises 23:24:37 0° 327° (NNW) 3,441 7.9 -27.3°
Reaches altitude 10° 23:27:09 10° 322° (NW) 2,497 6.9 -27.3°
Enters shadow 23:32:23 49° 258° (WSW) 1,091 4.1 -27.4°
